Regional Weather Roundup
Issued by NWS

Home | Current Version | Previous Version | Graphics & Text | Print | Product List | Glossary On
Versions: 1 2 3 4 5 6 7 8 9 10 11 12 13 14 15 16 17 18 19 20 21 22 23 24 25 26 27 28 29 30 31 32 33 34 35 36 37 38 39 40 41 42 43 44 45 46 47 48 49 50
000
ASUS43 KLMK 300102
RWRKY
KENTUCKY REGIONAL WEATHER ROUNDUP
NATIONAL WEATHER SERVICE LOUISVILLE KY
900 PM EDT THU SEP 29 2016

NOTE "FAIR" INDICATES FEW OR NO CLOUDS BELOW 12,000 FEET
WITH NO SIGNIFICANT WEATHER AND/OR OBSTRUCTIONS TO VISIBILITY.

KYZ001>023-026-027-061>063-070>075-300200-
WESTERN AND SOUTH CENTRAL KENTUCKY

CITY           SKY/WX    TMP DP  RH WIND       PRES   REMARKS
PADUCAH        MOCLDY    60  55  83 NW6       30.13R
HENDERSON      PTCLDY    57  50  77 CALM      30.10R
OWENSBORO      NOT AVBL
HOPKINSVILLE   PTCLDY    57  55  90 CALM      30.11R
BOWLING GREEN  CLOUDY    58  53  84 W3        30.11S
GLASGOW        NOT AVBL
$$

KYZ024-025-028>034-038-045-046-053-300200-
NORTH CENTRAL KENTUCKY

CITY           SKY/WX    TMP DP  RH WIND       PRES   REMARKS
LOUISVILLE/SDF MOCLDY    59  53  80 SW6       30.10R
LOUISVILLE/LOU PTCLDY    58  53  84 CALM      30.10S
FORT KNOX      LGT RAIN  55  54  98 W3        30.09S
$$

KYZ035>037-039>044-047>052-055>060-089>105-300200-
NORTHEAST KENTUCKY

CITY           SKY/WX    TMP DP  RH WIND       PRES   REMARKS
LEXINGTON      PTCLDY    57  51  80 W5        30.09S
COVINGTON      MOCLDY    60  56  86 NW5       30.08S
FRANKFORT      CLOUDY    57  52  83 SW3       30.08S
$$

KYZ054-064>069-076>088-106>120-300200-
SOUTHEAST KENTUCKY

CITY           SKY/WX    TMP DP  RH WIND       PRES   REMARKS
JACKSON        CLOUDY    56  54  93 CALM      30.08R
LONDON         CLOUDY    57  50  77 NW7       30.10R
SOMERSET       LGT RAIN  55  46  71 CALM      30.12R
MIDDLESBORO    CLOUDY    54  52  92 CALM      30.10R
MONTICELLO     CLOUDY    56  53  90 NE9       30.13R
$$





USA.gov is the U.S. government's official web portal to all federal, state and local government web resources and services.